Weather History for Troy, MI

Change the Weather History Date:

Thursday, September 12, 2013

  Actual Average (KDET) Record (KDET)
Temperature  
Mean Temperature 68 °F -  
Max Temperature 79 °F 75 °F 96 °F (1952)
Min Temperature 58 °F 57 °F 44 °F (1953)
Cooling Degree Days 4    
Growing Degree Days 18 (Base 50)    
Moisture  
Dew Point 59 °F    
Average Humidity 72    
Maximum Humidity 92    
Minimum Humidity 36    
Precipitation  
Precipitation 0.00 in - - ()
Sea Level Pressure  
Sea Level Pressure 29.94 in    
Wind  
Wind Speed 6 mph (WNW)    
Max Wind Speed 17 mph    
Max Gust Speed 39 mph    
Visibility 10 miles    
Events Rain    
Averages and records for this station are not official NWS values.
T = Trace of Precipitation, MM = Missing Value Source: NWS Daily Summary

Daily Weather History Graph

Daily Weather History Graph

Search for Another Location

Airport:

Trip Planner

Search our weather history database for the weather conditions in past years. The results will help you decide how hot, cold, wet, or windy it might be!

Date:

Astronomy

Sep. 12, 2013 Rise Set
Actual Time 7:09 AM EDT 7:47 PM EDT
Civil Twilight 6:41 AM EDT 8:15 PM EDT
Nautical Twilight 6:07 AM EDT 8:49 PM EDT
Astronomical Twilight 5:32 AM EDT 9:23 PM EDT
Moon 2:44 PM EDT (9/12) No Moon Set
Length of Visible Light 13h 34m
Length of Day
12h 37m
Waxing Crescent, 50% of the Moon is Illuminated
Sep 12
Waxing Crescent
Sep 12
First Quarter
Sep 19
Full
Sep 26
Last Quarter
Oct 4
New

Hourly Weather History & Observations

Time (EDT) Temp. Dew Point Humidity Pressure Visibility Wind Dir Wind Speed Gust Speed Precip Events Conditions
12:15 AM 70.7 °F 68.2 °F 92% 29.98 in 10.0 mi West 4.6 mph - N/A   Clear
12:35 AM 70.7 °F 68.0 °F 91% 29.97 in 10.0 mi WSW 3.5 mph - N/A   Scattered Clouds
12:55 AM 70.7 °F 68.2 °F 92% 29.96 in 10.0 mi West 3.5 mph - N/A   Scattered Clouds
1:14 AM 70.9 °F 68.0 °F 91% 29.96 in 10.0 mi West 3.5 mph - N/A   Mostly Cloudy
1:35 AM 71.2 °F 67.1 °F 87% 29.96 in 10.0 mi West 4.6 mph - N/A   Overcast
1:54 AM 71.1 °F 67.1 °F 87% 29.96 in 10.0 mi West 4.6 mph - N/A   Overcast
2:14 AM 71.2 °F 67.1 °F 87% 29.95 in 10.0 mi WSW 4.6 mph - N/A   Overcast
2:35 AM 70.7 °F 67.3 °F 89% 29.95 in 10.0 mi SW 3.5 mph - N/A   Overcast
2:54 AM 70.5 °F 67.3 °F 89% 29.95 in 10.0 mi SW 5.8 mph - N/A   Overcast
3:14 AM 70.3 °F 67.5 °F 91% 29.95 in 10.0 mi SW 5.8 mph - N/A   Overcast
3:34 AM 70.5 °F 67.5 °F 90% 29.94 in 10.0 mi SSW 5.8 mph - N/A   Overcast
3:54 AM 70.5 °F 67.5 °F 90% 29.94 in 10.0 mi WSW 3.5 mph - N/A   Overcast
4:15 AM 70.3 °F 67.5 °F 91% 29.94 in 10.0 mi SW 6.9 mph - N/A   Overcast
4:34 AM 70.0 °F 67.1 °F 91% 29.93 in 10.0 mi SW 4.6 mph - N/A   Overcast
4:48 AM 70.0 °F 67.1 °F 91% 29.93 in 10.0 mi SW 5.8 mph - N/A   Overcast
5:14 AM 69.8 °F 67.1 °F 91% 29.94 in 10.0 mi WSW 6.9 mph - N/A   Overcast
5:34 AM 69.4 °F 66.6 °F 91% 29.94 in 10.0 mi WSW 5.8 mph - N/A   Scattered Clouds
5:55 AM 69.1 °F 66.4 °F 91% 29.93 in 10.0 mi West 5.8 mph - N/A   Clear
6:14 AM 68.9 °F 66.2 °F 91% 29.93 in 10.0 mi WSW 4.6 mph - N/A   Clear
6:35 AM 68.4 °F 65.8 °F 92% 29.94 in 10.0 mi West 3.5 mph - N/A   Clear
6:54 AM 68.2 °F 65.7 °F 92% 29.94 in 10.0 mi WSW 4.6 mph - N/A   Clear
7:15 AM 68.0 °F 65.7 °F 92% 29.93 in 7.0 mi WSW 4.6 mph - N/A   Clear
7:35 AM 68.2 °F 65.7 °F 92% 29.93 in 10.0 mi West 4.6 mph - N/A   Clear
7:54 AM 68.4 °F 65.7 °F 91% 29.93 in 10.0 mi West 4.6 mph - N/A   Clear
8:15 AM 69.3 °F 65.8 °F 89% 29.93 in 10.0 mi WNW 8.1 mph - N/A   Clear
8:34 AM 69.8 °F 66.2 °F 88% 29.93 in 10.0 mi WNW 10.4 mph 18.4 mph N/A   Scattered Clouds
8:54 AM 69.8 °F 65.8 °F 87% 29.93 in 7.0 mi WNW 10.4 mph - N/A   Mostly Cloudy
9:15 AM 69.8 °F 65.7 °F 87% 29.93 in 7.0 mi WNW 8.1 mph - N/A   Scattered Clouds
9:34 AM 70.2 °F 65.7 °F 86% 29.93 in 10.0 mi WNW 8.1 mph - N/A   Scattered Clouds
9:55 AM 70.3 °F 65.3 °F 84% 29.93 in 10.0 mi NW 9.2 mph - N/A   Mostly Cloudy
10:14 AM 70.5 °F 64.2 °F 80% 29.93 in 10.0 mi NW 4.6 mph - N/A   Scattered Clouds
10:35 AM 70.2 °F 62.8 °F 77% 29.94 in 10.0 mi NNW 8.1 mph 16.1 mph N/A   Clear
10:55 AM 70.2 °F 60.3 °F 71% 29.94 in 10.0 mi NNW 10.4 mph - N/A   Clear
11:14 AM 70.7 °F 61.0 °F 71% 29.94 in 10.0 mi NNW 3.5 mph - N/A   Clear
11:35 AM 71.6 °F 58.6 °F 64% 29.94 in 10.0 mi NW 9.2 mph - N/A   Clear
11:55 AM 73.0 °F 59.2 °F 62% 29.94 in 10.0 mi NW 6.9 mph - N/A   Clear
12:14 PM 74.8 °F 56.3 °F 52% 29.94 in 10.0 mi NW 10.4 mph - N/A   Clear
12:35 PM 74.5 °F 52.5 °F 46% 29.94 in 10.0 mi NNW 8.1 mph - N/A   Clear
12:55 PM 75.6 °F 52.5 °F 45% 29.94 in 10.0 mi NW 13.8 mph 19.6 mph N/A   Clear
1:14 PM 76.1 °F 53.2 °F 45% 29.94 in 10.0 mi NW 9.2 mph 17.3 mph N/A   Clear
1:35 PM 76.8 °F 54.9 °F 46% 29.93 in 10.0 mi WNW 9.2 mph 16.1 mph N/A   Clear
1:54 PM 77.9 °F 51.8 °F 40% 29.93 in 10.0 mi NW 8.1 mph 17.3 mph N/A   Clear
2:14 PM 78.6 °F 52.7 °F 40% 29.92 in 10.0 mi NW 8.1 mph - N/A   Clear
2:35 PM 78.3 °F 51.3 °F 39% 29.91 in 10.0 mi NNW 12.7 mph - N/A   Scattered Clouds
2:54 PM 78.6 °F 51.1 °F 38% 29.91 in 10.0 mi NW 9.2 mph 19.6 mph N/A   Scattered Clouds
3:15 PM 79.3 °F 51.4 °F 38% 29.90 in 10.0 mi NNW 9.2 mph - N/A   Scattered Clouds
3:34 PM 79.0 °F 50.2 °F 36% 29.90 in 10.0 mi NW 11.5 mph 17.3 mph N/A   Scattered Clouds
3:55 PM 79.0 °F 49.8 °F 36% 29.90 in 10.0 mi NW 12.7 mph 18.4 mph N/A   Scattered Clouds
4:15 PM 78.6 °F 49.5 °F 36% 29.89 in 10.0 mi WNW 8.1 mph 16.1 mph N/A   Scattered Clouds
4:34 PM 77.7 °F 49.1 °F 36% - 10.0 mi NNW 12.7 mph 16.1 mph N/A   Scattered Clouds
4:55 PM 77.0 °F 50.0 °F 39% 29.88 in 10.0 mi NNW 11.5 mph - N/A   Scattered Clouds
5:15 PM 75.6 °F 51.4 °F 43% 29.88 in 10.0 mi NW 11.5 mph 18.4 mph N/A   Scattered Clouds
5:34 PM 76.3 °F 52.5 °F 43% 29.87 in 10.0 mi NW 8.1 mph - N/A   Scattered Clouds
5:55 PM 76.1 °F 52.3 °F 43% 29.87 in 10.0 mi West 4.6 mph - N/A   Scattered Clouds
6:15 PM 75.6 °F 52.7 °F 45% 29.87 in 10.0 mi NW 6.9 mph - N/A   Mostly Cloudy
6:34 PM 64.0 °F 57.0 °F 78% 29.93 in 5.0 mi NNW 17.3 mph 39.1 mph N/A Rain Light Rain
6:55 PM 63.0 °F 57.7 °F 83% 29.95 in 10.0 mi NW 9.2 mph - N/A Rain Light Rain
7:14 PM 63.5 °F 58.3 °F 83% 29.94 in 10.0 mi NNW 5.8 mph - N/A Rain Rain
7:35 PM 63.5 °F 58.8 °F 85% 29.93 in 10.0 mi North 6.9 mph - N/A   Overcast
7:54 PM 63.5 °F 57.7 °F 81% 29.92 in 10.0 mi North 8.1 mph - N/A   Mostly Cloudy
8:14 PM 63.1 °F 57.6 °F 82% 29.93 in 10.0 mi NW 6.9 mph - N/A   Overcast
8:35 PM 63.1 °F 57.4 °F 81% 29.94 in 10.0 mi NW 9.2 mph - N/A   Mostly Cloudy
8:54 PM 63.1 °F 56.8 °F 80% 29.95 in 10.0 mi NNW 8.1 mph - N/A   Scattered Clouds
9:15 PM 62.8 °F 56.3 °F 79% 29.95 in 10.0 mi NNW 9.2 mph - N/A   Clear
9:35 PM 62.6 °F 54.3 °F 74% 29.96 in 10.0 mi North 12.7 mph 18.4 mph N/A   Clear
9:54 PM 62.1 °F 52.5 °F 71% 29.96 in 10.0 mi North 10.4 mph - N/A   Scattered Clouds
10:15 PM 61.2 °F 50.7 °F 69% 29.97 in 10.0 mi NNW 9.2 mph - N/A   Clear
10:35 PM 60.4 °F 50.0 °F 68% 29.98 in 10.0 mi NNW 9.2 mph - N/A   Clear
10:54 PM 59.7 °F 49.5 °F 69% 29.98 in 10.0 mi NNW 6.9 mph - N/A   Clear
11:15 PM 59.2 °F 49.1 °F 69% 29.99 in 10.0 mi North 5.8 mph - N/A   Scattered Clouds
11:34 PM 58.8 °F 48.2 °F 68% 29.98 in 10.0 mi North 6.9 mph - N/A   Scattered Clouds
11:55 PM 59.0 °F 48.0 °F 67% 29.99 in 10.0 mi NNW 4.6 mph - N/A   Mostly Cloudy